[[{"header":{"parameterUnit":"m.s-1","parameterCategory":1,"la1":30.2991,"la2":30.254,"lo1":-89.0895,"lo2":-89.0444,"dy":0.0017,"dx":0.0017,"nx":28,"ny":28,"refTime":"2024-07-26T09:00:00:Z","depth":0,"parameterNumber":2,"parameterNumberName":"U-component_of_WINDS"},"data":[0,0,0,0,0,0,0,0,0,0,0,0,0,0,0,0,0,0,0,0,0,0,0,0,0,0,0,0,0,0,0,0,0,0,0,0,0,0,0,0,0,0,0,0,0,0,0,0,0,0,0,0,0,0,0,0,0,0,-1.4238,-1.4238,0,-1.4187,-1.4186,-1.4185,-1.4108,-1.4106,-1.4105,-1.4104,-1.4052,-1.4052,-1.4052,0,0,0,0,0,0,0,0,0,0,0,0,0,-1.4271,-1.4271,-1.4238,-1.4238,-1.4237,-1.4187,-1.4186,-1.4185,-1.4108,-1.4106,-1.4104,-1.4103,-1.4052,-1.4052,-1.4052,0,0,0,0,0,0,0,0,0,0,0,0,0,-1.4242,-1.4271,-1.4239,-1.4192,-1.4188,-1.4187,-1.4186,-1.4185,-1.4108,-1.4106,-1.4104,-1.4102,-1.4052,-1.4052,-1.4052,-1.4092,0,0,-1.4051,-1.4051,0,0,0,0,0,0,0,0,-1.4244,-1.4241,-1.42,-1.4196,-1.419,-1.4151,-1.4178,-1.4154,-1.4109,-1.4138,-1.4103,-1.4101,-1.4087,-1.4084,-1.4078,-1.409,-1.4087,-1.4051,-1.4051,-1.4051,-1.4051,0,0,0,0,0,0,0,-1.4246,-1.4243,-1.4218,-1.4199,-1.4194,-1.4174,-1.4168,-1.4173,-1.4125,-1.4136,-1.413,-1.4125,-1.4084,-1.4079,-1.4077,-1.4087,-1.4051,-1.4051,-1.4051,-1.4051,-1.4127,-1.4129,0,0,0,0,0,0,-1.4255,-1.4245,-1.422,-1.4216,-1.4212,-1.4176,-1.4168,-1.4166,-1.4125,-1.4116,-1.4127,-1.4121,-1.408,-1.4077,-1.4075,-1.4118,-1.4051,-1.4051,-1.4051,-1.4125,-1.4128,-1.413,0,0,0,0,0,0,-1.4256,-1.4253,-1.4222,-1.4229,-1.4223,-1.4177,-1.4175,-1.4166,-1.4161,-1.4118,-1.4109,-1.413,-1.4078,-1.4075,-1.4088,-1.4116,-1.4051,-1.4051,-1.4123,-1.4126,-1.4129,-1.4207,0,0,0,0,0,0,-1.4257,-1.4254,-1.4269,-1.423,-1.4223,-1.4236,-1.4177,-1.4167,-1.4161,-1.4153,-1.4119,-1.4111,-1.4076,-1.4089,-1.4088,-1.4114,-1.4051,-1.412,-1.4124,-1.4128,-1.4202,-1.4213,-1.4222,0,0,0,0,0,-1.4258,-1.4293,-1.427,-1.4267,-1.4241,-1.4238,-1.4234,-1.4193,-1.4163,-1.4178,-1.415,-1.4112,-1.4113,-1.4091,-1.4089,-1.4116,-1.4118,-1.4123,-1.4128,-1.4197,-1.4211,-1.4222,0,0,0,0,0,0,-1.4337,-1.4287,-1.4261,-1.4284,-1.4266,-1.4225,-1.4242,-1.4208,-1.4198,-1.4192,-1.4142,-1.4134,-1.4154,-1.4136,-1.4112,-1.4152,-1.411,-1.4114,-1.4163,-1.4175,-1.4185,-1.4189,-1.4051,0,0,0,0,0,-1.4357,-1.4359,-1.4315,-1.434,-1.4332,-1.4289,-1.4286,-1.4256,-1.4235,-1.4227,-1.4199,-1.4181,-1.4176,-1.4175,-1.4169,-1.4199,-1.419,-1.4216,-1.4226,-1.4235,-1.4239,-1.4253,-1.4264,-1.4146,-1.4146,-1.4146,0,0,-1.4399,-1.4372,-1.4376,-1.4355,-1.4337,-1.434,-1.4283,-1.4288,-1.4289,-1.4227,-1.4238,-1.4218,-1.4193,-1.4215,-1.4223,-1.4201,-1.427,-1.4241,-1.4248,-1.4248,-1.4259,-1.4271,-1.4281,-1.4149,-1.4148,-1.4148,0,0,-1.4476,-1.4456,-1.4474,-1.4457,-1.443,-1.4401,-1.4406,-1.4369,-1.4353,-1.4363,-1.4316,-1.4317,-1.4311,-1.4295,-1.4287,-1.4357,-1.4322,-1.4356,-1.4408,-1.4422,-1.4432,-1.444,-1.4464,-1.4474,-1.4361,-1.4361,-1.4361,0,-1.4532,-1.4533,-1.4488,-1.4496,-1.4488,-1.4431,-1.4449,-1.4435,-1.4408,-1.4404,-1.4379,-1.4369,-1.4349,-1.4366,-1.4383,-1.4378,-1.4381,-1.436,-1.4434,-1.4441,-1.4448,-1.4471,-1.4481,-1.4366,-1.4365,-1.4365,-1.4364,0,-1.4603,-1.4604,-1.4622,-1.4597,-1.4591,-1.4604,-1.456,-1.456,-1.453,-1.4504,-1.4514,-1.4487,-1.4474,-1.4476,-1.4447,-1.4489,-1.4475,-1.4443,-1.4399,-1.4465,-1.4485,-1.4494,-1.4372,-1.437,-1.4369,-1.4368,0,0,-1.4729,-1.4677,-1.4685,-1.4672,-1.4638,-1.4638,-1.4649,-1.4635,-1.4635,-1.4619,-1.4626,-1.4621,-1.4591,-1.4581,-1.455,-1.4562,-1.4619,-1.4528,-1.4527,-1.4546,-1.4662,-1.4687,-1.4698,-1.4595,-1.4597,-1.4598,-1.4664,0,-1.4799,-1.4813,-1.4772,-1.4797,-1.4798,-1.4743,-1.4752,-1.4732,-1.4708,-1.4705,-1.4677,-1.4675,-1.4635,-1.4628,-1.4638,-1.461,-1.4642,-1.4605,-1.4601,-1.4602,-1.4609,-1.4708,-1.4734,-1.4798,-1.4672,-1.4673,-1.4674,0,-1.4883,-1.487,-1.4895,-1.4858,-1.4857,-1.4866,-1.4849,-1.4847,-1.4823,-1.4804,-1.4793,-1.4756,-1.4764,-1.4722,-1.4731,-1.4706,-1.4703,-1.4688,-1.469,-1.4688,-1.4642,-1.4709,-1.4817,-1.4827,-1.4686,-1.4685,-1.4684,0,-1.4973,-1.4961,-1.4974,-1.4965,-1.4923,-1.493,-1.4913,-1.4886,-1.4881,-1.4867,-1.4862,-1.485,-1.4843,-1.4834,-1.4795,-1.4768,-1.4808,-1.4763,-1.4793,-1.4794,-1.4804,-1.4804,-1.4913,-1.4802,-1.4802,-1.4802,-1.4801,0,-1.5056,-1.5073,-1.5013,-1.5021,-1.5038,-1.4991,-1.501,-1.4987,-1.4964,-1.4967,-1.4919,-1.4922,-1.487,-1.4868,-1.4837,-1.4849,-1.4847,-1.4831,-1.4823,-1.4836,-1.4838,-1.4833,-1.4827,-1.4804,-1.4803,-1.4803,-1.4803,0,-1.5159,-1.5119,-1.513,-1.5089,-1.5079,-1.5093,-1.5058,-1.5064,-1.5035,-1.5039,-1.5037,-1.4993,-1.4988,-1.4948,-1.4934,-1.4913,-1.4936,-1.4919,-1.4944,-1.4939,-1.497,-1.4968,-1.508,-1.5092,-1.4974,-1.4975,-1.4976,0,-1.5214,-1.5226,-1.5186,-1.5184,-1.5169,-1.5166,-1.516,-1.5113,-1.5109,-1.5081,-1.509,-1.5081,-1.5071,-1.5065,-1.5032,-1.502,-1.5003,-1.5043,-1.5001,-1.5013,-1.5003,-1.5003,-1.5003,-1.5052,-1.5053,-1.5055,-1.5056,0,-1.5317,-1.5297,-1.5289,-1.5275,-1.5268,-1.5255,-1.5238,-1.5239,-1.5188,-1.5185,-1.5178,-1.5171,-1.5155,-1.5147,-1.5129,-1.5111,-1.5075,-1.5069,-1.5075,-1.5088,-1.5102,-1.5095,-1.4969,-1.5067,-1.5066,-1.5065,-1.5064,-1.5064,-1.5398,-1.5405,-1.5378,-1.5371,-1.5353,-1.5339,-1.5342,-1.5313,-1.5307,-1.5291,-1.5264,-1.5261,-1.5236,-1.5208,-1.5193,-1.519,-1.5169,-1.5179,-1.5181,-1.5184,-1.519,-1.5103,-1.5187,-1.5187,-1.5186,-1.5186,-1.5186,0,-1.5498,-1.5477,-1.5471,-1.5449,-1.5444,-1.5409,-1.5389,-1.5386,-1.5384,-1.5363,-1.5354,-1.5346,-1.5337,-1.5303,-1.529,-1.5294,-1.5277,-1.5292,-1.5292,-1.5288,-1.521,-1.5206,-1.5306,-1.5306,-1.5306,-1.5306,-1.5306,-1.5306,-1.5549,-1.556,-1.5537,-1.5538,-1.5517,-1.5514,-1.5505,-1.5491,-1.5474,-1.5467,-1.5459,-1.5436,-1.541,-1.5394,-1.5384,-1.5374,-1.5372,-1.5393,-1.5377,-1.5305,-1.5294,-1.5283,-1.5278,-1.5393,-1.5393,-1.5455,-1.5456,-1.5457]},{"header":{"parameterUnit":"m.s-1","parameterCategory":1,"la1":30.2991,"la2":30.254,"lo1":-89.0895,"lo2":-89.0444,"dy":0.0017,"dx":0.0017,"nx":28,"ny":28,"refTime":"2024-07-26T09:00:00:Z","depth":0,"parameterNumber":3,"parameterNumberName":"V-component_of_WINDS"},"data":[0,0,0,0,0,0,0,0,0,0,0,0,0,0,0,0,0,0,0,0,0,0,0,0,0,0,0,0,0,0,0,0,0,0,0,0,0,0,0,0,0,0,0,0,0,0,0,0,0,0,0,0,0,0,0,0,0,0,1.3785,1.3786,0,1.3862,1.3863,1.3864,1.3876,1.3876,1.3875,1.3874,1.3952,1.3954,1.3957,0,0,0,0,0,0,0,0,0,0,0,0,0,1.3646,1.3648,1.3785,1.3786,1.3787,1.3862,1.3863,1.3864,1.3876,1.3876,1.3875,1.3874,1.3951,1.3954,1.3957,0,0,0,0,0,0,0,0,0,0,0,0,0,1.3713,1.3649,1.3785,1.3802,1.3804,1.3862,1.3863,1.3865,1.3877,1.3876,1.3875,1.3874,1.395,1.3954,1.3958,1.4003,0,0,1.397,1.3972,0,0,0,0,0,0,0,0,1.3709,1.3718,1.3799,1.3801,1.3804,1.3859,1.3843,1.3911,1.3877,1.3849,1.3874,1.3873,1.3921,1.3928,1.3944,1.4007,1.401,1.397,1.3973,1.3975,1.3976,0,0,0,0,0,0,0,1.3704,1.3715,1.3816,1.38,1.3803,1.3805,1.3814,1.3856,1.389,1.3851,1.3853,1.3862,1.3923,1.3941,1.3946,1.4011,1.397,1.3974,1.3976,1.3978,1.4113,1.4114,0,0,0,0,0,0,1.3697,1.3711,1.3813,1.3818,1.3753,1.3809,1.3818,1.3842,1.389,1.3896,1.3862,1.3862,1.3934,1.3942,1.3949,1.4005,1.3975,1.3978,1.3981,1.4112,1.4114,1.4115,0,0,0,0,0,0,1.3694,1.3706,1.381,1.3765,1.3778,1.3812,1.3839,1.3844,1.3862,1.3898,1.3904,1.3874,1.3934,1.3943,1.3989,1.4007,1.398,1.3984,1.4111,1.4113,1.4114,1.4116,0,0,0,0,0,0,1.369,1.3705,1.3723,1.3765,1.3781,1.385,1.384,1.3846,1.3869,1.3869,1.3911,1.3917,1.3934,1.3983,1.3993,1.4012,1.3987,1.4109,1.4112,1.4114,1.4115,1.4118,1.412,0,0,0,0,0,1.3685,1.372,1.3724,1.3736,1.3804,1.3851,1.386,1.3879,1.3871,1.3889,1.3912,1.3915,1.4004,1.3988,1.3999,1.402,1.4108,1.4111,1.4113,1.4113,1.4117,1.412,0,0,0,0,0,0,1.3679,1.3726,1.3731,1.3781,1.3812,1.3853,1.3876,1.3882,1.3916,1.3914,1.3936,1.3945,1.399,1.401,1.3991,1.4066,1.4055,1.406,1.4051,1.4055,1.4058,1.4052,1.399,0,0,0,0,0,1.3684,1.3718,1.3757,1.3798,1.3813,1.3842,1.3863,1.3875,1.3908,1.3921,1.3947,1.3978,1.4013,1.4035,1.4069,1.4118,1.4126,1.4137,1.414,1.4142,1.4146,1.4172,1.4177,1.4123,1.4123,1.4123,0,0,1.3693,1.3723,1.3744,1.3798,1.3823,1.3857,1.3853,1.389,1.3915,1.3926,1.3971,1.3991,1.4027,1.4075,1.4097,1.4092,1.4163,1.4146,1.4147,1.415,1.4175,1.418,1.4185,1.4125,1.4125,1.4125,0,0,1.3729,1.3755,1.3792,1.3817,1.3856,1.3874,1.3883,1.3923,1.3937,1.3983,1.3991,1.4022,1.4081,1.4106,1.4127,1.4171,1.4175,1.4181,1.4196,1.4221,1.4225,1.4229,1.4244,1.4249,1.4185,1.4185,1.4185,0,1.3736,1.3789,1.3809,1.3846,1.3869,1.388,1.3917,1.394,1.3988,1.4003,1.3997,1.4072,1.4097,1.415,1.416,1.4177,1.4187,1.4176,1.4223,1.4227,1.4231,1.4245,1.4251,1.4186,1.4186,1.4186,1.4185,0,1.3795,1.3832,1.3856,1.3902,1.3927,1.3964,1.3989,1.4012,1.4022,1.4041,1.4086,1.4117,1.4157,1.4171,1.418,1.4224,1.422,1.4219,1.4209,1.4236,1.425,1.4256,1.4186,1.4186,1.4186,1.4186,0,0,1.3829,1.3885,1.3893,1.3914,1.3957,1.3985,1.4022,1.4061,1.408,1.4112,1.4143,1.4193,1.4191,1.4215,1.4227,1.4249,1.4281,1.4245,1.4246,1.425,1.433,1.433,1.4336,1.4284,1.4286,1.4286,1.4326,0,1.3868,1.3934,1.3953,1.4008,1.4041,1.4052,1.4084,1.4113,1.4132,1.4162,1.4183,1.4217,1.4214,1.4228,1.425,1.4272,1.4297,1.427,1.4312,1.4313,1.4301,1.4343,1.4344,1.438,1.4332,1.4333,1.4334,0,1.3923,1.3956,1.4014,1.4052,1.4067,1.4095,1.4132,1.4162,1.4195,1.4207,1.4232,1.4243,1.428,1.4269,1.432,1.4301,1.4319,1.4332,1.4334,1.4338,1.4324,1.4347,1.4392,1.4397,1.4342,1.4342,1.4341,0,1.394,1.3999,1.4042,1.4059,1.4105,1.4124,1.4144,1.4176,1.4198,1.4231,1.4245,1.4281,1.4301,1.4328,1.4348,1.4338,1.4397,1.4387,1.4407,1.4406,1.4418,1.4417,1.4465,1.4432,1.4431,1.4431,1.4431,0,1.3981,1.4016,1.405,1.4076,1.4115,1.4136,1.4174,1.4194,1.4223,1.4252,1.4264,1.4291,1.4316,1.4347,1.4362,1.4402,1.4411,1.4421,1.4424,1.4419,1.4418,1.4431,1.4428,1.4433,1.4432,1.4432,1.4432,0,1.4007,1.4031,1.4077,1.4117,1.4128,1.4154,1.4188,1.4213,1.4232,1.4269,1.4279,1.4309,1.4345,1.4368,1.4414,1.4424,1.4467,1.447,1.4455,1.4457,1.4475,1.4473,1.4533,1.4541,1.4503,1.4503,1.4503,0,1.4031,1.4058,1.4101,1.4121,1.4141,1.4175,1.4197,1.4219,1.4242,1.4282,1.4302,1.4339,1.437,1.4427,1.4452,1.4487,1.449,1.4509,1.4496,1.4489,1.4489,1.4487,1.4489,1.4511,1.4511,1.4511,1.4512,0,1.4072,1.4082,1.4115,1.4151,1.4178,1.4207,1.4237,1.4253,1.428,1.4305,1.4342,1.4366,1.4413,1.4449,1.4486,1.4506,1.4513,1.4516,1.4522,1.4516,1.4506,1.4511,1.446,1.4514,1.4514,1.4514,1.4513,1.4513,1.4097,1.4121,1.4154,1.4189,1.4214,1.4241,1.4267,1.4289,1.432,1.436,1.4372,1.441,1.4442,1.4492,1.4513,1.4543,1.454,1.455,1.4552,1.4553,1.4553,1.4503,1.455,1.455,1.455,1.455,1.455,0,1.4136,1.4158,1.4191,1.4232,1.426,1.4265,1.4297,1.432,1.4354,1.4383,1.4413,1.4455,1.449,1.4518,1.4554,1.4573,1.4577,1.4581,1.458,1.4584,1.4554,1.4545,1.4578,1.4578,1.4578,1.4577,1.4577,1.4577,1.416,1.4201,1.4215,1.4268,1.429,1.4328,1.4346,1.4371,1.4394,1.4441,1.447,1.4489,1.4517,1.4555,1.4587,1.4594,1.4607,1.461,1.4618,1.4589,1.4586,1.4583,1.4574,1.4613,1.4613,1.4645,1.4646,1.4646]}]]